| time (UTC) | temp C | wind direction | speed KPH | gust KPH | rain 1hr cm | rain 24hr cm | rain mn cm | humidity % | barometer mb |
| 20260510234512 | 28 | 118 | 0.0 | 1.6 | 0.00 | 0.05 | 0.05 | 71 | 1015.7 |
| 20260510233010 | 28 | 117 | 0.0 | 1.6 | 0.00 | 0.05 | 0.05 | 71 | 1015.6 |
| 20260510231513 | 28 | 66 | 0.0 | 3.2 | 0.00 | 0.05 | 0.05 | 69 | 1015.6 |
| 20260510230016 | 28 | 117 | 1.6 | 6.4 | 0.00 | 0.05 | 0.05 | 66 | 1015.6 |
| 20260510224515 | 29 | 345 | 3.2 | 4.8 | 0.00 | 0.05 | 0.05 | 63 | 1015.5 |
| 20260510223008 | 29 | 325 | 3.2 | 6.4 | 0.00 | 0.05 | 0.05 | 62 | 1015.6 |
| 20260510221515 | 28 | 7 | 1.6 | 6.4 | 0.00 | 0.05 | 0.05 | 64 | 1015.8 |
| 20260510220019 | 28 | 296 | 1.6 | 4.8 | 0.00 | 0.05 | 0.05 | 64 | 1015.8 |
| 20260510214524 | 28 | 19 | 1.6 | 8.0 | 0.00 | 0.05 | 0.05 | 66 | 1015.9 |
| 20260510213018 | 30 | 272 | 3.2 | 6.4 | 0.00 | 0.05 | 0.05 | 61 | 1015.9 |
| 20260510211508 | 28 | 264 | 0.0 | 4.8 | 0.00 | 0.05 | 0.05 | 64 | 1016.0 |
| 20260510210016 | 28 | 314 | 3.2 | 8.0 | 0.00 | 0.05 | 0.05 | 63 | 1016.0 |
| 20260510204528 | 28 | 25 | 3.2 | 4.8 | 0.00 | 0.05 | 0.05 | 67 | 1015.9 |
| 20260510203017 | 28 | 20 | 1.6 | 4.8 | 0.00 | 0.05 | 0.05 | 67 | 1015.9 |
| 20260510201518 | 28 | 356 | 1.6 | 6.4 | 0.00 | 0.05 | 0.05 | 67 | 1016.0 |
| 20260510200011 | 28 | 77 | 1.6 | 4.8 | 0.00 | 0.05 | 0.05 | 69 | 1016.0 |
| 20260510194516 | 28 | 104 | 3.2 | 9.7 | 0.00 | 0.05 | 0.05 | 65 | 1016.0 |
| 20260510193029 | 28 | 65 | 3.2 | 6.4 | 0.00 | 0.05 | 0.05 | 66 | 1016.0 |
| 20260510191526 | 29 | 240 | 4.8 | 8.0 | 0.00 | 0.05 | 0.05 | 62 | 1016.0 |
| 20260510190031 | 28 | 222 | 6.4 | 9.7 | 0.00 | 0.05 | 0.05 | 64 | 1016.1 |
| 20260510184513 | 28 | 107 | 0.0 | 12.9 | 0.00 | 0.05 | 0.05 | 64 | 1016.2 |
| 20260510183016 | 28 | 103 | 1.6 | 11.3 | 0.00 | 0.05 | 0.05 | 67 | 1016.4 |
| 20260510181522 | 27 | 142 | 3.2 | 9.7 | 0.00 | 0.05 | 0.05 | 69 | 1016.7 |
| 20260510180022 | 27 | 337 | 3.2 | 6.4 | 0.00 | 0.05 | 0.05 | 70 | 1017.0 |
| 20260510174523 | 26 | 2 | 1.6 | 6.4 | 0.00 | 0.05 | 0.05 | 71 | 1017.1 |
| 20260510173016 | 26 | 174 | 0.0 | 6.4 | 0.00 | 0.05 | 0.05 | 76 | 1017.3 |
| 20260510171526 | 25 | 16 | 3.2 | 6.4 | 0.00 | 0.05 | 0.05 | 76 | 1017.4 |
| 20260510170024 | 25 | 97 | 0.0 | 3.2 | 0.00 | 0.05 | 0.05 | 77 | 1017.6 |
| 20260510164524 | 23 | 302 | 0.0 | 0.0 | 0.05 | 0.05 | 0.05 | 79 | 1017.8 |
| 20260510163010 | 23 | 356 | 0.0 | 0.0 | 0.05 | 0.05 | 0.05 | 82 | 1018.0 |
| 20260510161517 | 23 | 3 | 0.0 | 0.0 | 0.05 | 0.05 | 0.05 | 81 | 1018.2 |
| 20260510160006 | 23 | 339 | 0.0 | 0.0 | 0.05 | 0.05 | 0.05 | 80 | 1018.2 |
| 20260510154504 | 23 | 232 | 0.0 | 0.0 | 0.00 | 0.00 | 0.00 | 81 | 1018.3 |
| 20260510153008 | 22 | 319 | 0.0 | 8.0 | 0.00 | 0.00 | 0.00 | 81 | 1018.3 |
| 20260510151519 | 22 | 347 | 0.0 | 6.4 | 0.00 | 0.00 | 0.00 | 82 | 1018.2 |
| 20260510150018 | 22 | 63 | 3.2 | 6.4 | 0.00 | 0.00 | 0.00 | 82 | 1018.2 |
| 20260510144510 | 22 | 237 | 1.6 | 6.4 | 0.00 | 0.00 | 0.00 | 84 | 1018.3 |
| 20260510143005 | 21 | 112 | 1.6 | 4.8 | 0.00 | 0.00 | 0.00 | 86 | 1018.0 |
| 20260510141513 | 21 | 87 | 1.6 | 4.8 | 0.00 | 0.00 | 0.00 | 84 | 1018.1 |
| 20260510140019 | 21 | 191 | 0.0 | 4.8 | 0.00 | 0.03 | 0.00 | 87 | 1017.9 |
| 20260510134518 | 20 | 16 | 0.0 | 6.4 | 0.00 | 0.10 | 0.00 | 88 | 1017.8 |
| 20260510133006 | 20 | 27 | 0.0 | 6.4 | 0.00 | 0.30 | 0.00 | 91 | 1017.6 |
| 20260510131505 | 19 | 347 | 1.6 | 4.8 | 0.00 | 0.48 | 0.00 | 92 | 1017.3 |
| 20260510130014 | 18 | 307 | 1.6 | 6.4 | 0.00 | 0.66 | 0.00 | 94 | 1017.3 |
| 20260510124518 | 18 | 317 | 0.0 | 3.2 | 0.00 | 0.79 | 0.00 | 95 | 1017.2 |
| 20260510123020 | 18 | 335 | 0.0 | 0.0 | 0.00 | 0.91 | 0.00 | 96 | 1016.8 |
| 20260510121506 | 18 | 351 | 0.0 | 1.6 | 0.00 | 1.02 | 0.00 | 96 | 1016.7 |
| 20260510120009 | 17 | 13 | 0.0 | 3.2 | 0.00 | 1.09 | 0.00 | 96 | 1016.5 |
| 20260510114521 | 17 | 254 | 0.0 | 0.0 | 0.00 | 1.42 | 0.00 | 96 | 1016.3 |
| 20260510113024 | 17 | 254 | 0.0 | 1.6 | 0.00 | 2.13 | 0.00 | 96 | 1016.0 |
| 20260510111522 | 17 | 253 | 0.0 | 1.6 | 0.00 | 2.82 | 0.00 | 96 | 1015.8 |
| 20260510110008 | 17 | 254 | 0.0 | 1.6 | 0.00 | 2.87 | 0.00 | 96 | 1015.5 |
| 20260510104512 | 17 | 354 | 0.0 | 0.0 | 0.00 | 2.90 | 0.00 | 96 | 1015.2 |
| 20260510103015 | 17 | 354 | 0.0 | 0.0 | 0.00 | 2.90 | 0.00 | 96 | 1015.1 |
| 20260510101519 | 17 | 354 | 0.0 | 1.6 | 0.00 | 2.90 | 0.00 | 96 | 1014.9 |
| 20260510100023 | 17 | 358 | 0.0 | 3.2 | 0.00 | 2.90 | 0.00 | 96 | 1014.9 |
| 20260510094506 | 17 | 133 | 0.0 | 0.0 | 0.00 | 2.90 | 0.00 | 96 | 1014.9 |
| 20260510093014 | 17 | 132 | 0.0 | 0.0 | 0.00 | 2.90 | 0.00 | 96 | 1014.6 |
| 20260510091518 | 17 | 132 | 0.0 | 0.0 | 0.00 | 2.90 | 0.00 | 96 | 1014.8 |
| 20260510090022 | 17 | 133 | 0.0 | 0.0 | 0.00 | 2.90 | 0.00 | 96 | 1014.7 |
| 20260510084524 | 17 | 133 | 0.0 | 0.0 | 0.00 | 2.90 | 0.00 | 96 | 1014.7 |
| 20260510083010 | 17 | 133 | 0.0 | 0.0 | 0.00 | 2.90 | 0.00 | 96 | 1014.7 |
| 20260510081514 | 17 | 133 | 0.0 | 0.0 | 0.00 | 2.90 | 0.00 | 96 | 1014.4 |
| 20260510080036 | 17 | 133 | 0.0 | 0.0 | 0.00 | 2.90 | 0.00 | 96 | 1014.1 |
| 20260510074526 | 17 | 146 | 0.0 | 0.0 | 0.00 | 2.90 | 0.00 | 96 | 1014.1 |
| 20260510073037 | 17 | 146 | 0.0 | 0.0 | 0.00 | 2.90 | 0.00 | 96 | 1014.1 |
| 20260510071515 | 17 | 146 | 0.0 | 0.0 | 0.00 | 2.90 | 0.00 | 96 | 1014.1 |
| 20260510070014 | 17 | 146 | 0.0 | 0.0 | 0.00 | 2.90 | 0.00 | 96 | 1013.9 |
| 20260510064518 | 16 | 146 | 0.0 | 0.0 | 0.00 | 2.90 | 0.00 | 95 | 1014.0 |
| 20260510063029 | 16 | 174 | 0.0 | 0.0 | 0.00 | 2.90 | 0.00 | 95 | 1013.9 |
| 20260510061527 | 17 | 174 | 0.0 | 1.6 | 0.00 | 2.90 | 0.00 | 95 | 1013.8 |
| 20260510060031 | 17 | 152 | 0.0 | 0.0 | 0.00 | 2.90 | 0.00 | 95 | 1013.7 |
| 20260510054519 | 17 | 152 | 0.0 | 0.0 | 0.00 | 2.90 | 0.00 | 95 | 1013.7 |
| 20260510053022 | 17 | 356 | 0.0 | 0.0 | 0.00 | 2.90 | 0.00 | 95 | 1013.9 |
| 20260510051526 | 17 | 18 | 0.0 | 0.0 | 0.00 | 2.90 | 0.00 | 95 | 1014.0 |
| 20260510050026 | 17 | 101 | 0.0 | 0.0 | 0.00 | 2.90 | 0.00 | 95 | 1014.0 |
| 20260510044518 | 17 | 101 | 0.0 | 0.0 | 0.00 | 2.90 | 2.90 | 95 | 1014.0 |
| 20260510043018 | 17 | 180 | 0.0 | 0.0 | 0.00 | 2.90 | 2.90 | 95 | 1014.2 |
| 20260510041526 | 17 | 180 | 0.0 | 0.0 | 0.00 | 2.90 | 2.90 | 94 | 1014.3 |
| 20260510040026 | 17 | 180 | 0.0 | 0.0 | 0.00 | 2.90 | 2.90 | 94 | 1014.4 |
| 20260510034528 | 17 | 180 | 0.0 | 0.0 | 0.00 | 2.90 | 2.90 | 94 | 1014.5 |
| 20260510033014 | 17 | 253 | 0.0 | 1.6 | 0.00 | 2.90 | 2.90 | 94 | 1014.6 |
| 20260510031525 | 17 | 55 | 0.0 | 3.2 | 0.00 | 2.90 | 2.90 | 94 | 1014.0 |
| 20260510030023 | 17 | 251 | 1.6 | 3.2 | 0.00 | 2.90 | 2.90 | 94 | 1014.6 |
| 20260510024528 | 17 | 91 | 0.0 | 1.6 | 0.00 | 2.90 | 2.90 | 94 | 1014.4 |
| 20260510023026 | 18 | 91 | 0.0 | 1.6 | 0.00 | 2.90 | 2.90 | 93 | 1014.3 |
| 20260510021544 | 18 | 136 | 0.0 | 1.6 | 0.00 | 2.90 | 2.90 | 93 | 1014.4 |
| 20260510020022 | 18 | 103 | 0.0 | 0.0 | 0.00 | 2.90 | 2.90 | 93 | 1014.2 |
| 20260510014533 | 18 | 103 | 0.0 | 3.2 | 0.00 | 2.90 | 2.90 | 93 | 1014.2 |
| 20260510013031 | 18 | 153 | 0.0 | 1.6 | 0.00 | 2.90 | 2.90 | 92 | 1014.0 |
| 20260510011517 | 18 | 131 | 0.0 | 1.6 | 0.00 | 2.90 | 2.90 | 92 | 1013.7 |
| 20260510010033 | 19 | 118 | 0.0 | 1.6 | 0.00 | 2.90 | 2.90 | 91 | 1013.6 |
| 20260510004522 | 19 | 116 | 0.0 | 1.6 | 0.00 | 2.90 | 2.90 | 91 | 1013.8 |
| 20260510003026 | 19 | 13 | 0.0 | 1.6 | 0.00 | 2.90 | 2.90 | 90 | 1013.6 |
| 20260510001527 | 19 | 176 | 1.6 | 3.2 | 0.00 | 2.90 | 2.90 | 90 | 1013.5 |
| 20260510000016 | 19 | 217 | 0.0 | 4.8 | 0.00 | 2.90 | 2.90 | 89 | 1013.2 |